RH
58 56 58 58 53 50 46 43 39 37 35 33 32 30 29 28 27 27 27 26 25 26 26 27 29 31 32 36 30 26 23 20 17 15 13 12 13 16 15 23 24 25 25 26 27
61 59 63 59 56 53 50 47 44 40 36 35 33 31 29 28 27 25 24 23 24 24 25 26 27 29 31 35 32 28 27 24 23 21 18 16 15 14 15 22 23 23 24 25 26
64 61 63 63 58 54 52 48 45 44 43 41 38 35 32 29 29 27 23 20 20 20 22 24 24 24 26 29 33 32 30 28 27 26 24 22 20 19 18 16 21 19 22 23 23
74 71 64 61 56 53 49 44 44 44 42 40 39 37 32 28 20 22 19 19 19 18 19 20 21 24 25 27 28 31 33 34 32 31 28 25 25 24 23 22 18 17 16 21 22
68 57 53 47 44 46 46 45 42 38 38 35 34 33 26 26 24 17 15 14 13 16 21 26 26 26 26 27 29 30 32 34 35 35 34 34 31 29 26 26 25 25 25 22 21
47 44 46 46 45 40 29 26 26 24 22 23 26 26 27 25 23 19 13 11 10 11 22 24 24 25 26 26 27 28 30 34 34 36 38 38 35 35 29 28 30 32 30 30 29
42 42 35 25 17 16 14 12 12 12 12 11 10 10 16 23 21 16 10 8 7 9 10 26 30 32 25 23 20 18 22 25 32 37 38 35 35 32 29 31 31 31 32 32 31
32 27 25 25 26 25 25 25 25 22 19 18 17 12 17 18 18 20 13 8 6 6 6 8 8 8 12 18 26 29 32 36 30 29 30 32 34 40 30 28 28 28 24 25 26
33 31 30 31 31 32 30 30 31 32 33 32 32 29 24 20 12 11 13 13 10 5 5 5 16 16 19 21 22 29 34 30 33 35 34 33 30 26 22 22 22 19 17 18 19
27 29 29 28 25 25 25 21 22 20 13 12 14 29 24 19 17 19 21 15 11 7 4 5 13 18 23 24 22 23 22 27 29 28 26 26 26 26 20 17 13 10 10 12 12
28 23 16 6 3 2 2 1 1 1 4 2 3 4 6 12 24 20 18 13 20 26 17 10 11 14 14 11 12 12 18 28 33 29 26 19 13 13 10 8 9 11 11 10 14
7 4 3 2 2 1 1 1 1 2 1 1 2 6 16 20 17 16 21 13 12 15 30 38 23 18 22 24 26 21 18 21 24 24 18 11 8 12 10 12 12 12 14 17 13
3 2 2 2 2 2 2 2 2 2 2 8 37 35 36 39 37 41 36 32 21 18 23 30 22 24 27 28 32 24 21 19 20 17 16 22 18 14 15 16 14 17 13 11 10
3 3 3 3 2 2 2 2 2 2 4 6 42 40 31 34 27 31 38 53 40 25 26 37 31 27 28 26 28 26 16 23 30 30 37 35 28 26 20 20 17 13 10 7 7
3 3 3 3 3 2 2 2 3 3 8 9 33 26 25 13 13 18 36 56 54 50 25 24 27 26 19 14 15 15 19 24 38 42 44 42 41 21 26 18 19 14 9 15 17
4 4 4 4 3 3 3 3 3 4 8 5 8 10 8 6 9 9 30 54 49 64 59 44 21 21 18 19 16 15 37 38 47 49 43 37 29 24 20 23 25 23 20 18 17
5 5 5 4 4 3 3 3 5 6 5 18 14 9 10 10 10 19 22 43 42 52 56 55 34 25 29 36 37 43 41 37 44 49 28 21 36 29 24 35 34 30 31 28 26
6 5 5 4 4 3 3 4 6 13 10 14 14 12 17 18 16 13 23 38 38 38 45 61 54 46 27 24 29 36 43 31 24 27 23 37 31 39 42 43 51 55 54 40 38
6 5 4 3 3 4 5 8 10 19 27 24 17 19 29 23 32 35 18 37 54 46 42 57 67 52 50 46 37 37 48 32 27 40 42 39 37 43 65 62 54 45 57 46 41
6 4 3 3 4 6 9 14 21 28 32 35 47 56 72 56 51 44 30 32 49 51 50 50 46 66 80 67 58 50 44 46 43 48 45 38 40 50 50 43 53 56 52 48 36
5 4 4 5 8 11 16 21 26 33 50 68 81 84 69 82 73 71 44 26 44 36 48 56 62 52 52 78 88 61 54 52 48 55 38 39 37 57 62 55 48 27 31 35 40
4 4 8 12 16 15 19 29 24 26 29 64 79 81 82 90 92 86 65 52 51 44 48 60 60 62 52 59 49 63 73 73 58 71 82 69 51 70 52 51 45 15 7 24 28
4 8 13 16 17 20 28 31 43 58 64 68 76 74 78 90 99 84 71 54 69 62 54 54 83 64 74 74 89 70 59 52 58 63 82 65 40 43 50 40 26 12 5 10 20
6 14 19 22 25 34 54 58 59 65 62 70 84 82 83 80 88 90 79 62 61 62 52 58 63 65 66 70 62 59 54 42 36 41 56 51 42 25 22 22 18 12 5 19 21
11 19 22 25 36 51 54 51 52 68 66 82 87 97 99 97 88 92 88 68 48 62 50 55 64 57 48 54 52 44 39 34 33 38 39 30 26 23 21 18 14 10 4 26 33
16 21 24 33 48 47 61 78 82 89 100 92 96 88 99 99 96 93 97 93 74 60 60 64 66 61 72 66 56 59 49 43 40 41 48 31 22 10 6 6 7 3 3 29 34
17 19 25 51 58 51 72 84 84 98 85 94 97 98 95 94 84 88 87 88 77 75 70 75 69 70 53 57 59 61 23 30 23 24 32 42 9 10 9 24 15 6 9 36 44
Wind_Speed
27 26 27 26 26 26 27 27 27 28 29 30 29 28 28 29 29 27 28 26 24 24 24 23 25 25 25 27 28 27 33 34 33 27 29 22 10 8 15 21 16 13 14 18 20
26 27 27 27 27 28 28 29 30 30 30 30 31 30 30 30 29 28 30 27 26 25 24 24 25 27 28 29 31 31 39 41 36 27 29 29 25 25 22 24 20 16 13 16 20
27 27 27 27 28 28 29 30 30 31 32 33 32 31 32 32 30 28 29 25 22 22 24 26 27 29 30 32 34 37 45 39 37 28 29 33 32 29 28 27 25 22 23 22 20
27 26 26 28 28 28 29 29 30 32 33 32 33 33 32 31 22 17 21 21 19 16 19 23 28 29 33 35 35 40 42 39 36 30 31 33 33 35 31 30 25 28 27 30 29
25 25 25 27 28 29 30 31 33 34 34 35 34 34 33 34 24 28 28 28 24 22 20 18 24 27 31 32 32 38 39 38 36 33 34 33 35 33 35 29 25 25 26 28 31
24 25 27 28 30 30 28 29 31 32 32 34 35 35 34 37 26 26 24 24 26 26 25 23 21 23 28 28 29 32 30 25 27 32 34 35 34 32 35 26 28 28 27 28 28
23 25 25 24 25 25 26 26 29 29 30 31 33 33 36 32 30 29 29 27 22 24 33 30 29 31 31 31 30 31 33 32 32 29 29 26 36 36 28 26 26 28 27 27 27
20 22 24 27 28 29 30 31 34 34 33 33 33 35 38 31 29 31 32 28 26 28 25 25 32 34 34 31 24 21 24 23 23 24 26 26 35 13 19 21 21 22 23 26 27
22 25 27 28 29 30 28 29 31 32 32 34 35 38 38 22 12 18 22 25 28 29 29 28 27 30 29 27 26 26 23 28 21 14 18 22 26 20 20 16 18 22 24 25 27
21 24 25 27 29 30 29 31 32 32 33 31 30 23 7 12 15 15 19 19 14 22 29 31 32 35 34 29 24 24 32 24 22 15 20 25 29 23 20 23 26 24 23 22 25
23 26 28 29 29 28 24 23 24 26 20 26 25 31 28 27 31 23 18 13 13 19 20 26 34 43 38 37 34 32 28 26 12 10 17 27 35 32 26 24 22 19 19 22 23
24 23 22 20 20 23 24 24 25 29 33 21 15 11 15 18 22 21 28 32 27 26 21 24 36 34 31 30 30 30 33 36 34 31 29 30 36 27 22 21 18 15 15 16 20
17 16 18 18 21 24 26 27 28 31 33 8 8 11 16 12 12 4 10 21 28 30 30 31 30 13 26 28 26 29 33 32 28 20 23 27 34 20 10 6 9 5 15 18 19
15 17 18 20 21 23 25 25 27 29 15 8 7 6 17 15 8 15 16 17 15 26 28 27 30 30 24 21 20 25 25 28 26 17 11 8 9 10 9 7 3 12 12 19 20
16 18 20 19 20 22 23 24 25 25 6 8 6 6 14 18 23 19 17 15 13 13 17 31 29 27 29 36 35 40 26 10 10 17 15 17 10 9 13 9 5 7 15 20 20
18 19 19 21 21 22 23 24 21 7 5 5 10 15 20 23 23 21 18 8 12 11 17 29 28 20 20 18 21 22 16 12 11 12 8 18 16 7 11 3 11 9 18 23 22
17 18 19 21 23 23 23 21 7 4 6 8 12 24 30 31 25 14 11 12 14 9 10 13 20 32 21 13 13 25 15 5 5 6 6 11 15 6 10 7 7 14 14 13 20
17 19 22 23 25 25 22 17 4 7 11 19 24 27 18 21 13 16 11 7 10 16 10 7 9 7 23 31 24 21 25 9 8 7 4 12 8 7 7 3 4 5 7 16 18
17 20 23 25 24 21 18 6 4 8 12 19 24 18 10 16 21 20 13 9 8 15 12 12 5 4 3 18 28 22 23 27 15 4 3 7 7 7 6 7 6 11 8 15 19
19 22 24 23 21 17 12 5 7 9 15 18 13 8 14 23 18 18 12 4 10 11 11 10 8 8 9 1 6 12 17 9 8 7 8 7 6 7 7 6 7 10 15 17 22
21 23 21 20 16 12 7 5 7 9 11 10 11 17 17 15 14 15 7 17 7 13 11 9 3 10 6 5 10 9 9 6 9 4 5 4 4 13 4 6 11 20 21 25 27
21 20 19 16 14 11 7 8 13 15 11 12 12 10 11 13 14 13 13 9 10 12 16 9 5 6 14 7 2 11 16 11 8 6 4 1 6 9 10 10 15 23 25 25 29
19 18 14 12 10 12 13 12 12 12 8 8 12 17 16 18 11 10 15 7 5 6 6 9 4 4 4 6 2 4 2 5 3 6 4 4 5 9 12 19 19 27 31 27 27
16 11 14 14 11 10 12 11 9 9 16 13 16 15 16 16 13 14 22 16 12 10 7 10 12 8 7 12 11 8 10 11 8 4 2 12 19 23 24 26 26 31 34 27 24
14 11 11 11 12 10 12 13 12 14 10 13 16 8 12 19 19 21 18 19 14 15 16 14 14 18 19 17 18 19 22 22 19 17 12 23 25 28 26 33 37 37 35 24 24
13 12 11 9 8 8 7 9 8 11 16 17 20 10 14 17 17 22 16 8 11 10 11 14 16 15 15 16 21 20 25 28 28 27 29 31 33 29 30 32 34 35 29 24 22
14 14 10 9 8 5 3 7 7 15 5 15 18 8 14 14 17 16 10 12 10 13 14 17 16 10 21 14 12 13 27 26 27 29 28 24 25 26 32 29 24 26 24 20 18
Wind_Direction
292 292 291 289 288 287 288 289 288 287 288 290 289 288 287 287 287 286 283 279 266 263 261 255 255 250 247 243 245 245 244 246 247 250 259 267 252 249 233 226 212 212 221 217 226
287 288 286 284 283 286 287 287 287 287 286 285 288 289 288 286 286 287 285 279 271 266 257 254 251 250 247 245 241 237 244 250 255 256 261 265 266 265 257 235 223 236 236 232 234
284 285 284 281 282 282 281 283 284 284 285 286 286 286 286 287 286 287 287 285 279 261 257 250 245 240 242 243 244 247 249 255 260 260 260 262 264 266 267 247 235 247 235 239 236
282 281 283 282 282 283 285 285 284 283 284 284 284 285 284 282 287 284 282 283 282 277 259 248 244 239 241 244 247 251 256 259 263 261 259 261 268 268 268 266 250 256 250 241 245
284 285 284 285 286 287 287 287 287 287 287 286 285 284 283 279 283 275 275 274 269 266 261 249 244 244 244 248 250 254 259 263 265 263 261 263 261 269 266 269 266 263 264 258 252
288 288 288 289 292 293 294 292 289 289 290 288 286 285 282 281 283 272 274 267 262 252 247 245 245 247 250 250 250 255 262 267 265 260 261 263 266 265 263 274 273 271 267 267 265
290 291 291 290 291 293 294 293 292 293 291 290 289 287 283 287 281 276 269 260 252 249 242 240 242 245 252 259 261 259 261 264 262 261 264 271 267 260 270 265 269 271 271 271 271
290 289 289 290 292 293 293 293 291 291 290 289 287 287 285 290 286 273 266 262 256 244 246 244 245 249 249 253 247 252 256 261 265 266 265 256 260 236 272 270 266 262 270 268 267
289 289 293 296 298 298 298 297 295 296 296 293 293 287 288 291 277 274 265 266 256 246 246 238 237 240 245 244 249 245 250 252 253 246 250 256 267 273 274 261 259 264 267 269 270
295 297 301 302 305 304 304 302 299 298 297 297 301 308 307 278 264 266 278 267 263 247 237 237 235 238 238 233 228 238 244 250 249 252 265 267 269 267 265 274 277 277 276 277 275
299 300 300 304 308 308 310 313 313 314 317 312 301 288 296 281 271 262 266 272 275 255 244 239 236 236 239 244 252 256 254 255 249 221 252 264 270 275 274 268 276 284 286 276 278
296 298 302 313 320 320 326 334 336 328 330 334 322 305 307 299 293 270 249 258 260 251 245 235 244 249 253 251 252 250 250 251 259 265 266 272 271 274 272 278 282 279 269 278 286
300 306 314 325 324 327 329 336 338 336 338 25 49 37 14 4 27 12 306 278 257 251 239 241 251 267 251 244 240 245 249 254 253 259 262 278 282 294 275 271 283 252 305 300 301
314 315 320 325 323 325 327 332 336 338 337 11 20 4 5 4 19 5 345 337 283 250 247 250 256 244 250 248 233 253 262 263 255 247 257 246 291 256 276 194 299 306 299 310 310
314 316 321 323 324 324 327 332 332 336 335 333 346 322 338 352 339 349 342 338 337 281 240 246 248 255 254 258 254 259 266 249 234 235 251 255 262 289 215 272 269 314 319 320 318
312 316 319 322 324 324 326 328 328 330 262 308 286 305 311 328 340 335 348 337 311 292 257 261 250 249 264 263 250 247 237 234 225 217 240 238 227 240 234 161 310 320 321 319 324
311 315 321 324 324 324 325 329 321 220 304 293 303 317 326 325 331 356 352 11 22 326 294 306 265 244 234 235 203 210 182 173 185 188 243 224 206 236 269 277 294 315 318 315 316
315 320 325 325 324 322 323 327 243 269 275 280 300 309 322 321 329 321 343 355 16 12 328 310 297 279 234 227 224 209 200 191 222 217 213 178 216 140 185 254 280 282 291 306 310
323 324 327 324 320 320 323 318 259 281 286 303 310 319 323 314 330 333 322 294 336 19 12 4 292 52 316 233 230 224 210 232 242 222 196 213 194 191 163 189 232 279 283 294 294
328 327 325 323 321 322 321 293 254 274 290 304 317 302 319 325 331 336 330 274 304 323 5 359 296 276 268 276 203 218 197 172 194 194 220 198 210 168 194 247 309 315 319 307 305
329 326 328 326 327 329 335 297 285 286 307 313 297 304 313 320 327 333 303 312 271 279 339 319 316 295 327 286 254 240 218 204 182 191 239 239 205 178 152 338 348 346 337 323 316
324 327 330 327 324 325 319 309 301 304 299 300 304 304 312 317 312 309 299 299 303 303 316 306 308 306 308 303 338 228 235 235 235 199 189 163 242 190 290 300 313 326 326 310 311
328 327 326 330 326 320 313 320 321 324 334 306 287 290 296 293 295 282 292 274 320 297 309 320 281 323 310 219 180 44 111 117 184 191 188 208 252 243 255 275 289 313 319 304 302
331 322 321 321 323 323 320 325 334 322 311 313 311 302 294 290 285 282 292 297 245 265 260 310 262 245 253 291 305 305 302 304 306 280 234 249 276 283 289 292 294 305 313 297 297
331 320 316 305 307 314 312 322 330 330 323 329 323 327 311 294 295 301 297 296 248 267 285 284 270 268 267 262 274 279 282 282 274 268 253 273 279 285 290 292 297 303 301 289 294
319 315 319 313 306 306 323 338 345 333 325 329 326 302 329 288 282 320 304 260 247 282 298 272 270 271 276 268 272 279 272 266 266 265 264 269 279 286 291 290 293 295 289 278 307
314 308 317 315 310 299 311 345 338 343 333 339 334 309 323 335 323 324 253 250 251 263 276 278 279 276 272 275 277 274 265 267 270 267 267 264 288 283 282 289 300 285 273 274 300